EZY1625 EGPH-EGGW

Flight info

Callsign EZY1625
Flight time 0h 52m
Altitude 33000
Route GOSAM P600 FENIK L612 NAVSO DCT AKOMU DCT VAMEB UL612 LISTO
Aircraft A320/M-SDE3FGHIRWY/LB1

Departure

Time 2026-04-26 12:30
Airport Edinburgh Airport (EGPH)

Arrival

Time 2026-04-26 13:22
Airport London Luton Airport (EGGW)
Time Latitude Longitude Altitude Speed Heading
2026-04-26 12:05 55.94766 -3.35554 117 ft 0 kts 208°
2026-04-26 12:14 55.94765 -3.35554 114 ft 0 kts 209°
2026-04-26 12:22 55.94776 -3.35544 114 ft 4 kts 208°
2026-04-26 12:22 55.94795 -3.35525 113 ft 4 kts 216°
2026-04-26 12:22 55.94811 -3.35492 113 ft 4 kts 262°
2026-04-26 12:22 55.94808 -3.35453 113 ft 1 kts 298°
2026-04-26 12:23 55.94807 -3.35451 116 ft 0 kts 298°
2026-04-26 12:25 55.94869 -3.35651 114 ft 17 kts 299°
2026-04-26 12:25 55.94930 -3.35838 115 ft 15 kts 311°
2026-04-26 12:25 55.95023 -3.35831 116 ft 14 kts
2026-04-26 12:25 55.95082 -3.35952 115 ft 12 kts 297°
2026-04-26 12:26 55.95120 -3.36112 115 ft 18 kts 292°
2026-04-26 12:26 55.95116 -3.36328 113 ft 19 kts 240°
2026-04-26 12:26 55.95045 -3.36540 115 ft 21 kts 239°
2026-04-26 12:26 55.94965 -3.36774 113 ft 23 kts 239°
2026-04-26 12:27 55.94878 -3.37030 113 ft 25 kts 239°
2026-04-26 12:27 55.94787 -3.37296 115 ft 25 kts 238°
2026-04-26 12:27 55.94695 -3.37575 114 ft 27 kts 239°
2026-04-26 12:27 55.94597 -3.37871 115 ft 29 kts 239°
2026-04-26 12:28 55.94491 -3.38175 113 ft 30 kts 238°
2026-04-26 12:28 55.94389 -3.38477 113 ft 26 kts 239°
2026-04-26 12:28 55.94303 -3.38734 113 ft 18 kts 237°
2026-04-26 12:28 55.94284 -3.38853 113 ft 7 kts 293°
2026-04-26 12:29 55.94365 -3.38953 114 ft 17 kts 329°
2026-04-26 12:29 55.94446 -3.38881 113 ft 19 kts 57°
2026-04-26 12:29 55.95080 -3.37022 116 ft 151 kts 59°
2026-04-26 12:30 55.95638 -3.35401 695 ft 152 kts 59°
2026-04-26 12:30 55.96268 -3.33885 1413 ft 152 kts 46°
2026-04-26 12:30 55.97113 -3.32524 1775 ft 175 kts 42°
2026-04-26 12:31 55.99183 -3.29223 2580 ft 224 kts 40°
2026-04-26 12:31 56.00130 -3.28261 2897 ft 242 kts 16°
2026-04-26 12:31 56.01855 -3.28350 3403 ft 260 kts 336°
2026-04-26 12:31 56.03255 -3.30360 4224 ft 263 kts 300°
2026-04-26 12:32 56.03739 -3.33412 5148 ft 262 kts 267°
2026-04-26 12:32 56.03450 -3.36651 6143 ft 261 kts 253°
2026-04-26 12:32 56.02259 -3.42825 8095 ft 266 kts 250°
2026-04-26 12:33 56.01652 -3.45972 8983 ft 270 kts 251°
2026-04-26 12:33 56.01085 -3.49205 9854 ft 274 kts 253°
2026-04-26 12:33 56.00555 -3.52507 10608 ft 283 kts 253°
2026-04-26 12:33 56.00019 -3.56042 10933 ft 306 kts 254°
2026-04-26 12:34 55.99460 -3.59862 11213 ft 329 kts 255°
2026-04-26 12:34 55.98882 -3.63900 11773 ft 340 kts 255°
2026-04-26 12:34 55.98296 -3.68020 12513 ft 344 kts 255°
2026-04-26 12:34 55.97707 -3.72168 13277 ft 346 kts 255°
2026-04-26 12:35 55.97109 -3.76361 14003 ft 349 kts 255°
2026-04-26 12:35 55.96505 -3.80578 14700 ft 353 kts 255°
2026-04-26 12:35 55.95890 -3.84837 15371 ft 356 kts 255°
2026-04-26 12:35 55.95266 -3.89128 16044 ft 359 kts 255°
2026-04-26 12:36 55.94633 -3.93465 16688 ft 363 kts 255°
2026-04-26 12:36 55.93932 -3.97799 17309 ft 366 kts 249°
2026-04-26 12:36 55.92721 -4.01816 17921 ft 370 kts 234°
2026-04-26 12:36 55.90965 -4.05180 18536 ft 375 kts 221°
2026-04-26 12:37 55.88826 -4.07893 19140 ft 379 kts 216°
2026-04-26 12:37 55.86642 -4.10561 19730 ft 382 kts 216°
2026-04-26 12:37 55.84441 -4.13247 20290 ft 386 kts 216°
2026-04-26 12:37 55.82220 -4.15953 20837 ft 389 kts 216°
2026-04-26 12:38 55.79983 -4.18677 21362 ft 392 kts 217°
2026-04-26 12:38 55.77717 -4.21404 21847 ft 395 kts 214°
2026-04-26 12:38 55.75213 -4.23502 22333 ft 403 kts 201°
2026-04-26 12:38 55.72454 -4.24586 22793 ft 411 kts 189°
2026-04-26 12:39 55.69575 -4.24607 23245 ft 419 kts 177°
2026-04-26 12:39 55.66699 -4.23573 23670 ft 426 kts 167°
2026-04-26 12:39 55.63911 -4.21662 24078 ft 434 kts 158°
2026-04-26 12:39 55.61244 -4.19109 24469 ft 438 kts 154°
2026-04-26 12:40 55.58574 -4.16482 24860 ft 440 kts 154°
2026-04-26 12:40 55.55888 -4.13848 25239 ft 443 kts 154°
2026-04-26 12:40 55.53184 -4.11209 25608 ft 445 kts 155°
2026-04-26 12:40 55.50468 -4.08564 25962 ft 447 kts 155°
2026-04-26 12:41 55.47735 -4.05910 26304 ft 449 kts 155°
2026-04-26 12:41 55.44987 -4.03248 26638 ft 452 kts 155°
2026-04-26 12:41 55.42224 -4.00577 26969 ft 454 kts 155°
2026-04-26 12:41 55.39451 -3.97897 27280 ft 456 kts 155°
2026-04-26 12:42 55.36662 -3.95201 27562 ft 459 kts 155°
2026-04-26 12:42 55.33859 -3.92491 27844 ft 461 kts 155°
2026-04-26 12:42 55.31045 -3.89774 28111 ft 463 kts 155°
2026-04-26 12:42 55.28216 -3.87048 28377 ft 465 kts 155°
2026-04-26 12:43 55.25372 -3.84323 28639 ft 467 kts 156°
2026-04-26 12:43 55.22518 -3.81592 28885 ft 468 kts 156°
2026-04-26 12:43 55.19638 -3.78919 29112 ft 469 kts 157°
2026-04-26 12:43 55.16723 -3.76353 29338 ft 469 kts 158°
2026-04-26 12:44 55.13825 -3.73896 29643 ft 468 kts 159°
2026-04-26 12:44 55.10852 -3.71418 29947 ft 467 kts 159°
2026-04-26 12:44 55.07920 -3.68977 30243 ft 466 kts 159°
2026-04-26 12:44 55.04995 -3.66525 30546 ft 465 kts 159°
2026-04-26 12:45 55.02089 -3.64064 30824 ft 465 kts 159°
2026-04-26 12:45 54.99182 -3.61580 31103 ft 465 kts 159°
2026-04-26 12:45 54.96283 -3.59096 31382 ft 464 kts 159°
2026-04-26 12:45 54.93386 -3.56616 31653 ft 464 kts 159°
2026-04-26 12:46 54.90490 -3.54144 31936 ft 463 kts 159°
2026-04-26 12:46 54.87597 -3.51683 32225 ft 463 kts 159°
2026-04-26 12:46 54.84704 -3.49228 32502 ft 462 kts 159°
2026-04-26 12:46 54.81814 -3.46785 32769 ft 462 kts 159°
2026-04-26 12:47 54.78923 -3.44349 33011 ft 462 kts 159°
2026-04-26 12:47 54.76027 -3.41917 33220 ft 463 kts 159°
2026-04-26 12:47 54.73133 -3.39492 33281 ft 463 kts 159°
2026-04-26 12:48 54.67346 -3.34647 33284 ft 463 kts 159°
2026-04-26 12:48 54.61583 -3.29828 33284 ft 463 kts 159°
2026-04-26 12:49 54.55788 -3.24993 33294 ft 462 kts 159°
2026-04-26 12:49 54.49956 -3.20136 33293 ft 463 kts 159°
2026-04-26 12:50 54.44195 -3.15374 33291 ft 462 kts 159°
2026-04-26 12:50 54.38394 -3.10590 33287 ft 463 kts 159°
2026-04-26 12:51 54.32583 -3.05801 33285 ft 464 kts 159°
2026-04-26 12:51 54.26765 -3.01028 33282 ft 464 kts 159°
2026-04-26 12:52 54.20943 -2.96270 33278 ft 464 kts 159°
2026-04-26 12:52 54.15108 -2.91565 33278 ft 464 kts 160°
2026-04-26 12:53 54.09195 -2.87195 33280 ft 463 kts 162°
2026-04-26 12:53 54.03246 -2.83001 33284 ft 463 kts 162°
2026-04-26 12:54 53.97303 -2.78766 33289 ft 464 kts 161°
2026-04-26 12:54 53.91365 -2.74462 33292 ft 464 kts 161°
2026-04-26 12:55 53.85283 -2.70041 33292 ft 464 kts 161°
2026-04-26 12:55 53.79485 -2.65875 33292 ft 464 kts 161°
2026-04-26 12:56 53.73531 -2.61640 33293 ft 464 kts 161°
2026-04-26 12:56 53.67577 -2.57386 33290 ft 465 kts 161°
2026-04-26 12:57 53.61622 -2.53131 33292 ft 465 kts 161°
2026-04-26 12:57 53.55658 -2.48899 33293 ft 465 kts 161°
2026-04-26 12:58 53.46714 -2.42565 33298 ft 465 kts 161°
2026-04-26 12:58 53.40742 -2.38365 33301 ft 465 kts 161°
2026-04-26 12:59 53.34775 -2.34173 33302 ft 465 kts 161°
2026-04-26 12:59 53.28808 -2.29995 33305 ft 465 kts 161°
2026-04-26 13:00 53.22835 -2.25818 33311 ft 465 kts 161°
2026-04-26 13:00 53.16865 -2.21662 33314 ft 465 kts 161°
2026-04-26 13:01 53.11256 -2.16187 33314 ft 472 kts 147°
2026-04-26 13:01 53.05962 -2.09718 33317 ft 472 kts 147°
2026-04-26 13:02 53.00675 -2.03275 33321 ft 471 kts 147°
2026-04-26 13:02 52.95375 -1.96847 33324 ft 472 kts 147°
2026-04-26 13:03 52.90074 -1.90442 33326 ft 471 kts 147°
2026-04-26 13:03 52.84769 -1.84054 33330 ft 471 kts 147°
2026-04-26 13:04 52.79464 -1.77694 33335 ft 471 kts 147°
2026-04-26 13:04 52.74104 -1.71508 33338 ft 467 kts 154°
2026-04-26 13:05 52.68375 -1.66517 33184 ft 465 kts 156°
2026-04-26 13:05 52.65508 -1.64053 32775 ft 464 kts 156°
2026-04-26 13:05 52.62622 -1.61579 31566 ft 471 kts 156°
2026-04-26 13:06 52.59702 -1.59085 30381 ft 475 kts 156°
2026-04-26 13:06 52.56761 -1.56575 29150 ft 479 kts 156°
2026-04-26 13:06 52.53798 -1.54046 27890 ft 481 kts 156°
2026-04-26 13:06 52.50823 -1.51504 26610 ft 482 kts 155°
2026-04-26 13:07 52.47850 -1.48962 25465 ft 481 kts 155°
2026-04-26 13:07 52.44912 -1.46451 24620 ft 472 kts 155°
2026-04-26 13:07 52.42015 -1.43985 23756 ft 466 kts 154°
2026-04-26 13:07 52.39157 -1.41557 22907 ft 460 kts 155°
2026-04-26 13:08 52.36332 -1.39160 22114 ft 454 kts 155°
2026-04-26 13:08 52.33547 -1.36805 21362 ft 448 kts 155°
2026-04-26 13:08 52.30791 -1.34483 20616 ft 443 kts 155°
2026-04-26 13:08 52.28081 -1.32162 19980 ft 436 kts 153°
2026-04-26 13:09 52.25457 -1.29768 19613 ft 429 kts 152°
2026-04-26 13:09 52.22895 -1.27332 19166 ft 425 kts 152°
2026-04-26 13:09 52.20360 -1.24879 18722 ft 422 kts 151°
2026-04-26 13:09 52.17845 -1.22451 18284 ft 418 kts 151°
2026-04-26 13:10 52.15347 -1.20059 17858 ft 416 kts 152°
2026-04-26 13:10 52.12856 -1.17698 17440 ft 413 kts 152°
2026-04-26 13:10 52.11182 -1.16123 17150 ft 411 kts 152°
2026-04-26 13:10 52.08710 -1.13809 16727 ft 408 kts 152°
2026-04-26 13:11 52.06260 -1.11519 16301 ft 406 kts 151°
2026-04-26 13:11 52.04006 -1.08770 15876 ft 406 kts 137°
2026-04-26 13:11 52.02224 -1.05229 15461 ft 406 kts 123°
2026-04-26 13:11 52.01027 -1.01104 15060 ft 403 kts 109°
2026-04-26 13:12 52.00486 -0.96701 14657 ft 395 kts 95°
2026-04-26 13:12 52.00591 -0.92289 14256 ft 387 kts 83°
2026-04-26 13:12 52.00909 -0.88079 13856 ft 365 kts 83°
2026-04-26 13:12 52.01201 -0.84103 13467 ft 345 kts 84°
2026-04-26 13:13 52.01471 -0.80337 13067 ft 329 kts 85°
2026-04-26 13:13 52.01402 -0.76737 12664 ft 313 kts 103°
2026-04-26 13:13 52.00651 -0.73493 12269 ft 304 kts 122°
2026-04-26 13:13 51.99339 -0.70861 11865 ft 298 kts 141°
2026-04-26 13:14 51.97646 -0.68964 11466 ft 295 kts 150°
2026-04-26 13:14 51.95904 -0.67220 10820 ft 294 kts 150°
2026-04-26 13:14 51.94118 -0.65634 10116 ft 291 kts 163°
2026-04-26 13:14 51.92143 -0.65257 9400 ft 286 kts 188°
2026-04-26 13:15 51.90298 -0.66355 8642 ft 285 kts 215°
2026-04-26 13:15 51.88959 -0.68678 7883 ft 284 kts 241°
2026-04-26 13:15 51.88285 -0.71658 7140 ft 281 kts 252°
2026-04-26 13:15 51.87367 -0.74382 6411 ft 276 kts 223°
2026-04-26 13:16 51.85719 -0.75817 5682 ft 271 kts 188°
2026-04-26 13:16 51.83860 -0.75667 4969 ft 267 kts 165°
2026-04-26 13:16 51.82329 -0.74170 4498 ft 253 kts 126°
2026-04-26 13:16 51.81728 -0.71702 4517 ft 228 kts 96°
2026-04-26 13:17 51.82187 -0.67044 4112 ft 199 kts 75°
2026-04-26 13:17 51.82554 -0.64975 3850 ft 186 kts 75°
2026-04-26 13:18 51.83211 -0.61246 3401 ft 157 kts 76°
2026-04-26 13:18 51.83495 -0.59629 3190 ft 143 kts 76°
2026-04-26 13:18 51.84021 -0.56624 2828 ft 137 kts 76°
2026-04-26 13:19 51.84277 -0.55158 2622 ft 134 kts 76°
2026-04-26 13:19 51.84535 -0.53682 2466 ft 136 kts 76°
2026-04-26 13:19 51.84788 -0.52235 2276 ft 134 kts 76°
2026-04-26 13:19 51.85042 -0.50780 2098 ft 134 kts 76°
2026-04-26 13:20 51.85295 -0.49326 1930 ft 135 kts 75°
2026-04-26 13:20 51.85550 -0.47866 1741 ft 134 kts 75°
2026-04-26 13:20 51.85803 -0.46414 1573 ft 134 kts 75°
2026-04-26 13:20 51.86056 -0.44961 1401 ft 134 kts 75°
2026-04-26 13:21 51.86308 -0.43508 1215 ft 134 kts 76°
2026-04-26 13:21 51.86478 -0.42530 1090 ft 134 kts 75°
2026-04-26 13:21 51.86807 -0.40617 867 ft 134 kts 75°
2026-04-26 13:21 51.87063 -0.39173 655 ft 133 kts 76°
2026-04-26 13:22 51.87311 -0.37748 525 ft 123 kts 74°
2026-04-26 13:22 51.87498 -0.36656 526 ft 76 kts 75°
2026-04-26 13:22 51.87601 -0.36065 516 ft 34 kts 75°
2026-04-26 13:22 51.87666 -0.35919 516 ft 12 kts 351°
2026-04-26 13:23 51.87762 -0.35988 516 ft 18 kts 319°
2026-04-26 13:23 51.87764 -0.36176 518 ft 23 kts 254°
2026-04-26 13:23 51.87719 -0.36436 519 ft 27 kts 254°
2026-04-26 13:23 51.87666 -0.36742 523 ft 26 kts 254°
2026-04-26 13:24 51.87621 -0.37015 522 ft 27 kts 254°
2026-04-26 13:24 51.87578 -0.37270 522 ft 18 kts 259°
2026-04-26 13:24 51.87624 -0.37456 523 ft 19 kts 328°
2026-04-26 13:24 51.87715 -0.37633 518 ft 23 kts 293°
2026-04-26 13:25 51.87776 -0.37838 523 ft 19 kts 297°
2026-04-26 13:25 51.87845 -0.37990 523 ft 17 kts 324°
2026-04-26 13:25 51.87955 -0.38002 523 ft 17 kts 21°
2026-04-26 13:25 51.88013 -0.37931 523 ft 3 kts 89°
2026-04-26 13:26 51.88002 -0.37893 523 ft 3 kts 123°
2026-04-26 13:26 51.87990 -0.37868 523 ft 3 kts 128°
2026-04-26 13:26 51.87988 -0.37864 523 ft 0 kts 127°